This demonstration page uses our WeatherBlox Daily Observations layout. Learn more.

Hourly Observations for August 13, 2020

Temp ( °F °C ) Dew Point ( °F °C ) Humidity (%) Winds ( mph kmh ) Pressure ( in mb ) Visibility ( mi km ) Precip ( " mm )
12:54 am 00:54 Clear 74 23.3 70 21.1 88 88 SE 7 11 29.94 1014 10 16.0934 0 0
1:54 am 01:54 Clear 74 23.3 69 20.6 85 85 SE 6 9 29.93 1014 10 16.0934 0 0
2:54 am 02:54 Clear 73 22.8 69 20.6 87 87 S 3 6 29.95 1014 10 16.0934 0 0
3:54 am 03:54 Clear 73 22.8 69 20.6 87 87 Calm 29.96 1014 10 16.0934 0 0
4:54 am 04:54 Clear 69 20.6 67 19.4 93 93 S 6 9 29.95 1014 8 12.87472 0 0
5:54 am 05:54 Clear 71 21.7 68 20 90 90 S 6 9 29.95 1014 9 14.48406 0 0
6:54 am 06:54 Mostly Cloudy 71 21.7 68 20 90 90 SSE 7 11 29.96 1015 8 12.87472 0 0
7:54 am 07:54 Sunny 74 23.3 69 20.6 85 85 SSE 8 13 29.95 1014 9 14.48406 0 0
8:54 am 08:54 Sunny 77 25 69 20.6 77 77 S 14 22 29.96 1015 9 14.48406 0 0
9:54 am 09:54 Sunny 80 26.7 70 21.1 71 71 S 12 19 29.96 1015 9 14.48406 0 0
10:54 am 10:54 Sunny 83 28.3 70 21.1 65 65 S 7 11 29.96 1015 9 14.48406 0 0
11:54 am 11:54 Sunny 85 29.4 69 20.6 59 59 SW 6 9 29.97 1015 9 14.48406 0 0
12:54 pm 12:54 Sunny 88 31.1 67 19.4 50 50 SE 12 19 29.95 1014 9 14.48406 0 0
1:54 pm 13:54 Sunny 90 32.2 68 20 48 48 SSW 10 17 29.93 1014 9 14.48406 0 0
2:54 pm 14:54 Partly Cloudy 90 32.2 69 20.6 50 50 SSE 12 19 29.91 1013 9 14.48406 0 0
3:54 pm 15:54 Mostly Cloudy 88 31.1 68 20 52 52 SE 8 13 29.9 1013 9 14.48406 0 0
4:54 pm 16:54 Mostly Cloudy 89 31.7 69 20.6 52 52 S 12 19 29.89 1012 9 14.48406 0 0
5:54 pm 17:54 Partly Cloudy 87 30.6 70 21.1 57 57 SSE 14 22 29.89 1012 9 14.48406 0 0
6:54 pm 18:54 Mostly Sunny 87 30.6 70 21.1 57 57 SSE 17 28 29.89 1012 9 14.48406 0 0
7:54 pm 19:54 Sunny 84 28.9 70 21.1 63 63 SSE 13 20 29.9 1013 9 14.48406 0 0
8:54 pm 20:54 Clear 82 27.8 71 21.7 69 69 SSE 12 19 29.92 1013 10 16.0934 0 0
9:54 pm 21:54 Clear 81 27.2 70 21.1 69 69 SSE 10 17 29.92 1013 10 16.0934 0 0
10:54 pm 22:54 Clear 79 26.1 71 21.7 77 77 SSE 8 13 29.93 1014 10 16.0934 0 0
11:54 pm 23:54 Clear 77 25 71 21.7 82 82 SSE 9 15 29.93 1014 10 16.0934 0 0

Powered by AerisWeather